Вернуться в каталог

ARIANE 2 DEB

LostGTO
NORAD 33583·DEBRIS·🇫🇷 France

Запущен Jan 27, 1989 с Guiana Space Centre

Loading…

TLE

УстаревшееSource: Space-Track

Эпоха: May 27, 2012, 03:06 UTC

1 33583U 89006CB  12148.12933545  .00002480  00000-0  45211-2 0  9992
2 33583 008.5466 219.9781 7200337 226.7299 048.6983 02.31938431 39867

Отслеживайте ARIANE 2 DEB в реальном времени с AllMySat

Download on the App Store